Retour au catalogue

FENGYUN 1C DEB

LostSSO
NORAD 38506·DEBRIS·🇨🇳 China

Lancé May 10, 1999 depuis Taiyuan Satellite Launch Center

Loading…

Prochains Passages (prochaines 24 heures)

TLE

PériméSource: Space-Track

Époque: Nov 21, 2023, 01:30 UTC

1 38506U 99025ESR 23325.06276806  .00008775  00000-0  38358-2 0  9993
2 38506  98.9869 256.6025 0153669 260.2981  98.0808 14.17915283667044

Suivez FENGYUN 1C DEB en temps réel avec AllMySat

Download on the App Store